sat.trackr.live / text

‹ back to catalog

YAOGAN-30 01

NORAD 41473 · 2016-029A

PAYLOAD ACTIVE UNKNOWN

§ Identity

Operator
Country
PRC
Launch date
2016-05-15
Launch site
JSC
Launch vehicle
Mass (kg)
RCS (m²)
3.71

External: N2YO · Heavens-Above · Gunter

§ Orbital elements

Epoch: 2026-09-14T23:05:38.544288Z

Period
97.55 min
Inclination
97.8925°
Eccentricity
0.0014571
Mean motion
14.76240984 rev/d
Perigee alt
631.0 km
Apogee alt
651.4 km
Semi-major
7,019.4 km
B*
3.8232e-5
RAAN
305.8750°
Arg perigee
305.6555°
Mean anomaly
54.3298°
Rev number
55,691

§ Raw data

YAOGAN-30 011 41473U 16029A   26257.96225167  .00000214  00000+0  38232-4 0  99952 41473  97.8925 305.8750 0014571 305.6555  54.3298 14.76240984556918

JSON: /api/v1/satellites/41473 · /tle

For live sub-satellite position, see the globe view (requires WebGL).

§ Visibility from observer

Set your observer location to see the next 7 days of passes ≥ 10°. The values pass through the URL so the page stays shareable.

No JS? Fill the form by hand. The geolocation button needs JavaScript.